Time,TemperatureF,DewpointF,PressureIn,WindDirection,WindDirectionDegrees,WindSpeedMPH,WindSpeedGustMPH,Humidity,HourlyPrecipIn,Conditions,Clouds,dailyrainin,SoftwareType,DateUTC
2013-03-29 00:00:00,44.0,29.0,-100.00,NNW,330,5.0,12.0,54,-99.99,,,-99.99,,2013-03-29 04:00:00,
2013-03-29 00:23:00,44.0,29.0,-100.00,NNW,330,5.0,12.0,54,-99.99,,,-99.99,,2013-03-29 04:23:00,
2013-03-29 00:33:00,44.0,29.0,-100.00,NNW,330,5.0,12.0,54,-99.99,,,-99.99,,2013-03-29 04:33:00,
2013-03-29 00:43:00,44.0,29.0,-100.00,NNW,330,5.0,12.0,54,-99.99,,,-99.99,,2013-03-29 04:43:00,
2013-03-29 00:53:00,44.0,29.0,-100.00,NNW,330,5.0,12.0,54,-99.99,,,-99.99,,2013-03-29 04:53:00,
2013-03-29 01:00:00,43.0,29.0,-100.00,NW,308,4.0,10.0,58,-99.99,,,-99.99,,2013-03-29 05:00:00,
2013-03-29 01:23:00,43.0,29.0,-100.00,NW,308,4.0,10.0,58,-99.99,,,-99.99,,2013-03-29 05:23:00,
2013-03-29 01:33:00,43.0,29.0,-100.00,NW,308,4.0,10.0,58,-99.99,,,-99.99,,2013-03-29 05:33:00,
2013-03-29 01:43:00,43.0,29.0,-100.00,NW,308,4.0,10.0,58,-99.99,,,-99.99,,2013-03-29 05:43:00,
2013-03-29 01:52:00,43.0,29.0,-100.00,NW,308,4.0,10.0,58,-99.99,,,-99.99,,2013-03-29 05:52:00,
2013-03-29 02:00:00,41.0,29.0,-100.00,WNW,300,3.0,6.0,61,-99.99,,,-99.99,,2013-03-29 06:00:00,
2013-03-29 02:32:00,41.0,29.0,-100.00,WNW,300,3.0,6.0,61,-99.99,,,-99.99,,2013-03-29 06:32:00,
2013-03-29 02:42:00,41.0,29.0,-100.00,WNW,300,3.0,6.0,61,-99.99,,,-99.99,,2013-03-29 06:42:00,
2013-03-29 02:52:00,41.0,29.0,-100.00,WNW,300,3.0,6.0,61,-99.99,,,-99.99,,2013-03-29 06:52:00,
2013-03-29 03:00:00,40.0,29.0,-100.00,NW,310,4.0,6.0,64,-99.99,,,-99.99,,2013-03-29 07:00:00,
2013-03-29 03:22:00,40.0,29.0,-100.00,NW,310,4.0,6.0,64,-99.99,,,-99.99,,2013-03-29 07:22:00,
2013-03-29 03:32:00,40.0,29.0,-100.00,NW,310,4.0,6.0,64,-99.99,,,-99.99,,2013-03-29 07:32:00,
2013-03-29 03:42:00,40.0,29.0,-100.00,NW,310,4.0,6.0,64,-99.99,,,-99.99,,2013-03-29 07:42:00,
2013-03-29 03:52:00,40.0,29.0,-100.00,NW,310,4.0,6.0,64,-99.99,,,-99.99,,2013-03-29 07:52:00,
2013-03-29 04:00:00,39.0,28.0,-100.00,West,276,1.0,5.0,65,-99.99,,,-99.99,,2013-03-29 08:00:00,
2013-03-29 04:32:00,39.0,28.0,-100.00,West,276,1.0,5.0,65,-99.99,,,-99.99,,2013-03-29 08:32:00,
2013-03-29 04:42:00,39.0,28.0,-100.00,West,276,1.0,5.0,65,-99.99,,,-99.99,,2013-03-29 08:42:00,
2013-03-29 04:53:00,39.0,28.0,-100.00,West,276,1.0,5.0,65,-99.99,,,-99.99,,2013-03-29 08:53:00,
2013-03-29 05:00:00,39.0,28.0,-100.00,West,281,1.0,6.0,65,-99.99,,,-99.99,,2013-03-29 09:00:00,
2013-03-29 05:22:00,39.0,28.0,-100.00,West,281,1.0,6.0,65,-99.99,,,-99.99,,2013-03-29 09:22:00,
2013-03-29 05:33:00,39.0,28.0,-100.00,West,281,1.0,6.0,65,-99.99,,,-99.99,,2013-03-29 09:33:00,
2013-03-29 05:43:00,39.0,28.0,-100.00,West,281,1.0,6.0,65,-99.99,,,-99.99,,2013-03-29 09:43:00,
2013-03-29 05:52:00,39.0,28.0,-100.00,West,281,1.0,6.0,65,-99.99,,,-99.99,,2013-03-29 09:52:00,
2013-03-29 06:00:00,38.0,28.0,-100.00,WNW,282,2.0,6.0,67,-99.99,,,-99.99,,2013-03-29 10:00:00,
2013-03-29 06:23:00,38.0,28.0,-100.00,WNW,282,2.0,6.0,67,-99.99,,,-99.99,,2013-03-29 10:23:00,
2013-03-29 06:33:00,38.0,28.0,-100.00,WNW,282,2.0,6.0,67,-99.99,,,-99.99,,2013-03-29 10:33:00,
2013-03-29 06:42:00,38.0,28.0,-100.00,WNW,282,2.0,6.0,67,-99.99,,,-99.99,,2013-03-29 10:42:00,
2013-03-29 06:53:00,38.0,28.0,-100.00,WNW,282,2.0,6.0,67,-99.99,,,-99.99,,2013-03-29 10:53:00,
2013-03-29 07:00:00,38.0,28.0,-100.00,WNW,291,3.0,8.0,66,-99.99,,,-99.99,,2013-03-29 11:00:00,
2013-03-29 07:23:00,38.0,28.0,-100.00,WNW,291,3.0,8.0,66,-99.99,,,-99.99,,2013-03-29 11:23:00,
2013-03-29 07:33:00,38.0,28.0,-100.00,WNW,291,3.0,8.0,66,-99.99,,,-99.99,,2013-03-29 11:33:00,
2013-03-29 07:43:00,38.0,28.0,-100.00,WNW,291,3.0,8.0,66,-99.99,,,-99.99,,2013-03-29 11:43:00,
2013-03-29 07:53:00,38.0,28.0,-100.00,WNW,291,3.0,8.0,66,-99.99,,,-99.99,,2013-03-29 11:53:00,
2013-03-29 08:00:00,41.0,29.0,-100.00,West,280,2.0,9.0,62,-99.99,,,-99.99,,2013-03-29 12:00:00,
2013-03-29 08:33:00,41.0,29.0,-100.00,West,280,2.0,9.0,62,-99.99,,,-99.99,,2013-03-29 12:33:00,
2013-03-29 08:43:00,41.0,29.0,-100.00,West,280,2.0,9.0,62,-99.99,,,-99.99,,2013-03-29 12:43:00,
2013-03-29 08:53:00,41.0,29.0,-100.00,West,280,2.0,9.0,62,-99.99,,,-99.99,,2013-03-29 12:53:00,
2013-03-29 09:00:00,44.0,28.0,-100.00,NW,310,14.0,19.0,52,-99.99,,,-99.99,,2013-03-29 13:00:00,
2013-03-29 09:23:00,44.0,28.0,-100.00,NW,310,14.0,19.0,52,-99.99,,,-99.99,,2013-03-29 13:23:00,
2013-03-29 09:33:00,44.0,28.0,-100.00,NW,310,14.0,19.0,52,-99.99,,,-99.99,,2013-03-29 13:33:00,
2013-03-29 09:43:00,44.0,28.0,-100.00,NW,310,14.0,19.0,52,-99.99,,,-99.99,,2013-03-29 13:43:00,
2013-03-29 09:53:00,44.0,28.0,-100.00,NW,310,14.0,19.0,52,-99.99,,,-99.99,,2013-03-29 13:53:00,
2013-03-29 10:00:00,46.0,28.0,-100.00,NW,310,13.0,16.0,48,-99.99,,,-99.99,,2013-03-29 14:00:00,
2013-03-29 10:22:00,46.0,28.0,-100.00,NW,310,13.0,16.0,48,-99.99,,,-99.99,,2013-03-29 14:22:00,
2013-03-29 10:33:00,46.0,28.0,-100.00,NW,310,13.0,16.0,48,-99.99,,,-99.99,,2013-03-29 14:33:00,
2013-03-29 10:42:00,46.0,28.0,-100.00,NW,310,13.0,16.0,48,-99.99,,,-99.99,,2013-03-29 14:42:00,
2013-03-29 10:53:00,46.0,28.0,-100.00,NW,310,13.0,16.0,48,-99.99,,,-99.99,,2013-03-29 14:53:00,
2013-03-29 11:00:00,49.0,26.0,-100.00,NW,310,8.0,16.0,41,-99.99,,,-99.99,,2013-03-29 15:00:00,
2013-03-29 11:22:00,49.0,26.0,-100.00,NW,310,8.0,16.0,41,-99.99,,,-99.99,,2013-03-29 15:22:00,
2013-03-29 11:33:00,49.0,26.0,-100.00,NW,310,8.0,16.0,41,-99.99,,,-99.99,,2013-03-29 15:33:00,
2013-03-29 11:43:00,49.0,26.0,-100.00,NW,310,8.0,16.0,41,-99.99,,,-99.99,,2013-03-29 15:43:00,
2013-03-29 11:53:00,49.0,26.0,-100.00,NW,310,8.0,16.0,41,-99.99,,,-99.99,,2013-03-29 15:53:00,
2013-03-29 12:00:00,51.0,29.0,-100.00,NW,314,9.0,15.0,42,-99.99,,,-99.99,,2013-03-29 16:00:00,
2013-03-29 12:33:00,51.0,29.0,-100.00,NW,314,9.0,15.0,42,-99.99,,,-99.99,,2013-03-29 16:33:00,
2013-03-29 12:43:00,51.0,29.0,-100.00,NW,314,9.0,15.0,42,-99.99,,,-99.99,,2013-03-29 16:43:00,
2013-03-29 12:53:00,51.0,29.0,-100.00,NW,314,9.0,15.0,42,-99.99,,,-99.99,,2013-03-29 16:53:00,
2013-03-29 13:00:00,51.0,24.0,-100.00,NW,305,7.0,18.0,34,-99.99,,,-99.99,,2013-03-29 17:00:00,
2013-03-29 13:23:00,51.0,24.0,-100.00,NW,305,7.0,18.0,34,-99.99,,,-99.99,,2013-03-29 17:23:00,
2013-03-29 13:33:00,51.0,24.0,-100.00,NW,305,7.0,18.0,34,-99.99,,,-99.99,,2013-03-29 17:33:00,
2013-03-29 13:43:00,51.0,24.0,-100.00,NW,305,7.0,18.0,34,-99.99,,,-99.99,,2013-03-29 17:43:00,
2013-03-29 13:53:00,51.0,24.0,-100.00,NW,305,7.0,18.0,34,-99.99,,,-99.99,,2013-03-29 17:53:00,
2013-03-29 14:00:00,54.0,25.0,-100.00,WSW,257,11.0,17.0,32,-99.99,,,-99.99,,2013-03-29 18:00:00,
2013-03-29 14:23:00,54.0,25.0,-100.00,WSW,257,11.0,17.0,32,-99.99,,,-99.99,,2013-03-29 18:23:00,
2013-03-29 14:33:00,54.0,25.0,-100.00,WSW,257,11.0,17.0,32,-99.99,,,-99.99,,2013-03-29 18:33:00,
2013-03-29 14:43:00,54.0,25.0,-100.00,WSW,257,11.0,17.0,32,-99.99,,,-99.99,,2013-03-29 18:43:00,
2013-03-29 14:53:00,54.0,25.0,-100.00,WSW,257,11.0,17.0,32,-99.99,,,-99.99,,2013-03-29 18:53:00,
2013-03-29 15:00:00,53.0,23.0,-100.00,NW,316,7.0,16.0,30,-99.99,,,-99.99,,2013-03-29 19:00:00,
2013-03-29 15:33:00,53.0,23.0,-100.00,NW,316,7.0,16.0,30,-99.99,,,-99.99,,2013-03-29 19:33:00,
2013-03-29 15:43:00,53.0,23.0,-100.00,NW,316,7.0,16.0,30,-99.99,,,-99.99,,2013-03-29 19:43:00,
2013-03-29 15:53:00,53.0,23.0,-100.00,NW,316,7.0,16.0,30,-99.99,,,-99.99,,2013-03-29 19:53:00,
2013-03-29 16:00:00,53.0,24.0,-100.00,WNW,284,4.0,16.0,32,-99.99,,,-99.99,,2013-03-29 20:00:00,
2013-03-29 16:33:00,53.0,24.0,-100.00,WNW,284,4.0,16.0,32,-99.99,,,-99.99,,2013-03-29 20:33:00,
2013-03-29 16:42:00,53.0,24.0,-100.00,WNW,284,4.0,16.0,32,-99.99,,,-99.99,,2013-03-29 20:42:00,
2013-03-29 16:52:00,53.0,24.0,-100.00,WNW,284,4.0,16.0,32,-99.99,,,-99.99,,2013-03-29 20:52:00,
2013-03-29 17:00:00,50.0,30.0,-100.00,NNW,345,2.0,12.0,47,-99.99,,,-99.99,,2013-03-29 21:00:00,
2013-03-29 17:22:00,50.0,30.0,-100.00,NNW,345,2.0,12.0,47,-99.99,,,-99.99,,2013-03-29 21:22:00,
2013-03-29 17:33:00,50.0,30.0,-100.00,NNW,345,2.0,12.0,47,-99.99,,,-99.99,,2013-03-29 21:33:00,
2013-03-29 17:43:00,50.0,30.0,-100.00,NNW,345,2.0,12.0,47,-99.99,,,-99.99,,2013-03-29 21:43:00,
2013-03-29 17:53:00,50.0,30.0,-100.00,NNW,345,2.0,12.0,47,-99.99,,,-99.99,,2013-03-29 21:53:00,
2013-03-29 18:00:00,51.0,26.0,-100.00,NW,318,11.0,25.0,38,-99.99,,,-99.99,,2013-03-29 22:00:00,
2013-03-29 18:23:00,51.0,26.0,-100.00,NW,318,11.0,25.0,38,-99.99,,,-99.99,,2013-03-29 22:23:00,
2013-03-29 18:34:00,51.0,26.0,-100.00,NW,318,11.0,25.0,38,-99.99,,,-99.99,,2013-03-29 22:34:00,
2013-03-29 18:43:00,51.0,26.0,-100.00,NW,318,11.0,25.0,38,-99.99,,,-99.99,,2013-03-29 22:43:00,
2013-03-29 18:54:00,51.0,26.0,-100.00,NW,318,11.0,25.0,38,-99.99,,,-99.99,,2013-03-29 22:54:00,
2013-03-29 19:00:00,49.0,25.0,-100.00,NW,324,9.0,21.0,39,-99.99,,,-99.99,,2013-03-29 23:00:00,
2013-03-29 19:22:00,49.0,25.0,-100.00,NW,324,9.0,21.0,39,-99.99,,,-99.99,,2013-03-29 23:22:00,
2013-03-29 19:32:00,49.0,25.0,-100.00,NW,324,9.0,21.0,39,-99.99,,,-99.99,,2013-03-29 23:32:00,
2013-03-29 19:43:00,49.0,25.0,-100.00,NW,324,9.0,21.0,39,-99.99,,,-99.99,,2013-03-29 23:43:00,
2013-03-29 19:53:00,49.0,25.0,-100.00,NW,324,9.0,21.0,39,-99.99,,,-99.99,,2013-03-29 23:53:00,
2013-03-29 20:00:00,48.0,26.0,-100.00,North,352,3.0,13.0,42,-99.99,,,-99.99,,2013-03-30 00:00:00,
2013-03-29 20:33:00,48.0,26.0,-100.00,North,352,3.0,13.0,42,-99.99,,,-99.99,,2013-03-30 00:33:00,
2013-03-29 20:43:00,48.0,26.0,-100.00,North,352,3.0,13.0,42,-99.99,,,-99.99,,2013-03-30 00:43:00,
2013-03-29 20:53:00,48.0,26.0,-100.00,North,352,3.0,13.0,42,-99.99,,,-99.99,,2013-03-30 00:53:00,
2013-03-29 21:00:00,46.0,25.0,-100.00,NW,322,3.0,11.0,43,-99.99,,,-99.99,,2013-03-30 01:00:00,
2013-03-29 21:23:00,46.0,25.0,-100.00,NW,322,3.0,11.0,43,-99.99,,,-99.99,,2013-03-30 01:23:00,
2013-03-29 21:33:00,46.0,25.0,-100.00,NW,322,3.0,11.0,43,-99.99,,,-99.99,,2013-03-30 01:33:00,
2013-03-29 21:43:00,46.0,25.0,-100.00,NW,322,3.0,11.0,43,-99.99,,,-99.99,,2013-03-30 01:43:00,
2013-03-29 21:53:00,46.0,25.0,-100.00,NW,322,3.0,11.0,43,-99.99,,,-99.99,,2013-03-30 01:53:00,
2013-03-29 22:00:00,44.0,27.0,-100.00,WNW,295,2.0,5.0,52,-99.99,,,-99.99,,2013-03-30 02:00:00,
2013-03-29 22:22:00,44.0,27.0,-100.00,WNW,295,2.0,5.0,52,-99.99,,,-99.99,,2013-03-30 02:22:00,
2013-03-29 22:33:00,44.0,27.0,-100.00,WNW,295,2.0,5.0,52,-99.99,,,-99.99,,2013-03-30 02:33:00,
2013-03-29 22:43:00,44.0,27.0,-100.00,WNW,295,2.0,5.0,52,-99.99,,,-99.99,,2013-03-30 02:43:00,
2013-03-29 22:53:00,44.0,27.0,-100.00,WNW,295,2.0,5.0,52,-99.99,,,-99.99,,2013-03-30 02:53:00,
2013-03-29 23:00:00,42.0,28.0,-100.00,NW,322,1.0,4.0,57,-99.99,,,-99.99,,2013-03-30 03:00:00,
2013-03-29 23:33:00,42.0,28.0,-100.00,NW,322,1.0,4.0,57,-99.99,,,-99.99,,2013-03-30 03:33:00,
2013-03-29 23:43:00,42.0,28.0,-100.00,NW,322,1.0,4.0,57,-99.99,,,-99.99,,2013-03-30 03:43:00,
2013-03-29 23:53:00,42.0,28.0,-100.00,NW,322,1.0,4.0,57,-99.99,,,-99.99,,2013-03-30 03:53:00,